TimeCST,TemperatureF,Dew PointF,Humidity,Sea Level PressureIn,VisibilityMPH,Wind Direction,Wind SpeedMPH,Gust SpeedMPH,PrecipitationIn,Events,Conditions,WindDirDegrees,DateUTC
12:06 AM,33.8,33.8,100,29.59,3.0,South,12.7,-,N/A,,Overcast,180,2013-01-11 06:06:00
12:32 AM,33.8,33.8,100,29.58,2.5,South,11.5,-,N/A,,Overcast,190,2013-01-11 06:32:00
12:37 AM,33.8,33.8,100,29.57,1.5,South,12.7,-,N/A,,Overcast,180,2013-01-11 06:37:00
12:56 AM,34.0,34.0,100,29.61,1.5,South,6.9,-,N/A,,Overcast,180,2013-01-11 06:56:00
1:14 AM,33.8,33.8,100,29.56,0.5,South,10.4,-,N/A,Fog,Fog,170,2013-01-11 07:14:00
1:21 AM,33.8,33.8,100,29.56,0.2,South,11.5,-,N/A,Fog,Fog,170,2013-01-11 07:21:00
1:56 AM,34.0,34.0,100,29.60,0.2,South,12.7,-,0.00,Fog,Light Drizzle,180,2013-01-11 07:56:00
2:24 AM,33.8,33.8,100,29.55,0.5,South,11.5,-,0.00,Fog,Light Drizzle,190,2013-01-11 08:24:00
2:31 AM,33.8,33.8,100,29.55,1.0,South,16.1,21.9,0.00,,Light Drizzle,190,2013-01-11 08:31:00
2:56 AM,34.0,34.0,100,29.57,1.2,South,12.7,-,0.00,,Light Drizzle,190,2013-01-11 08:56:00
3:36 AM,33.8,33.8,100,29.51,0.5,South,12.7,-,0.00,Fog,Light Drizzle,190,2013-01-11 09:36:00
3:56 AM,34.0,34.0,100,29.55,0.5,South,12.7,-,0.00,Fog,Light Drizzle,190,2013-01-11 09:56:00
4:56 AM,34.0,34.0,100,29.52,1.0,South,15.0,21.9,0.00,,Mist,180,2013-01-11 10:56:00
5:56 AM,34.0,34.0,100,29.53,1.0,SSW,8.1,-,N/A,,Overcast,200,2013-01-11 11:56:00
6:06 AM,33.8,33.8,100,29.47,0.8,South,12.7,-,N/A,,Mist,170,2013-01-11 12:06:00
6:56 AM,33.8,33.8,100,29.46,0.5,South,11.5,-,N/A,Fog,Light Drizzle,180,2013-01-11 12:56:00
7:34 AM,35.6,35.6,100,29.46,1.0,South,12.7,-,0.00,,Light Drizzle,180,2013-01-11 13:34:00
7:56 AM,35.1,35.1,100,29.51,0.8,South,12.7,-,0.00,,Light Drizzle,190,2013-01-11 13:56:00
8:18 AM,35.6,35.6,100,29.47,1.0,South,11.5,17.3,0.00,,Light Drizzle,190,2013-01-11 14:18:00
8:56 AM,35.1,35.1,100,29.50,1.0,South,10.4,-,0.00,,Light Drizzle,190,2013-01-11 14:56:00
9:56 AM,34.0,34.0,100,29.48,1.0,South,10.4,-,0.00,,Light Drizzle,180,2013-01-11 15:56:00
10:30 AM,35.6,35.6,100,29.44,3.0,South,12.7,-,0.00,,Overcast,170,2013-01-11 16:30:00
10:56 AM,35.1,35.1,100,29.47,4.0,South,11.5,-,0.00,,Overcast,180,2013-01-11 16:56:00
11:10 AM,35.6,35.6,100,29.43,2.5,South,9.2,-,0.00,,Light Drizzle,190,2013-01-11 17:10:00
11:56 AM,36.0,35.1,97,29.44,2.0,SSW,4.6,-,0.00,,Light Drizzle,200,2013-01-11 17:56:00
12:56 PM,36.0,36.0,100,29.40,2.0,SSW,4.6,-,0.01,,Light Drizzle,210,2013-01-11 18:56:00
1:56 PM,36.0,36.0,100,29.39,2.0,SSW,5.8,-,0.01,,Light Drizzle,210,2013-01-11 19:56:00
2:56 PM,36.0,36.0,100,29.37,2.0,Calm,Calm,-,0.00,,Overcast,0,2013-01-11 20:56:00
3:04 PM,35.6,35.6,100,29.35,3.0,SSW,3.5,-,N/A,,Overcast,210,2013-01-11 21:04:00
3:50 PM,35.6,35.6,100,29.35,2.0,SSW,4.6,-,0.00,,Light Drizzle,200,2013-01-11 21:50:00
3:56 PM,36.0,36.0,100,29.39,2.0,SSW,3.5,-,0.00,,Light Drizzle,210,2013-01-11 21:56:00
4:29 PM,35.6,35.6,100,29.35,0.8,SSW,5.8,-,0.00,,Light Drizzle,210,2013-01-11 22:29:00
4:35 PM,35.6,35.6,100,29.35,0.2,SSW,6.9,-,0.00,Fog,Light Drizzle,210,2013-01-11 22:35:00
4:56 PM,34.0,34.0,100,29.39,1.2,West,10.4,-,0.00,,Overcast,270,2013-01-11 22:56:00
5:52 PM,32.0,30.2,93,29.39,3.0,West,10.4,-,N/A,,Overcast,260,2013-01-11 23:52:00
5:56 PM,32.0,30.9,96,29.44,5.0,West,9.2,-,0.00,,Light Drizzle,260,2013-01-11 23:56:00
6:04 PM,32.0,30.2,93,29.40,6.0,West,12.7,17.3,0.00,,Light Drizzle,270,2013-01-12 00:04:00
6:56 PM,28.9,28.0,96,29.45,6.0,West,13.8,24.2,0.00,,Freezing Rain,280,2013-01-12 00:56:00
7:56 PM,26.1,24.1,92,29.49,10.0,West,15.0,25.3,0.00,,Overcast,280,2013-01-12 01:56:00
8:28 PM,24.8,21.2,86,29.46,10.0,WNW,18.4,29.9,N/A,,Overcast,290,2013-01-12 02:28:00
8:56 PM,24.1,21.0,88,29.52,10.0,WNW,23.0,32.2,N/A,,Overcast,300,2013-01-12 02:56:00
9:56 PM,21.0,18.0,88,29.52,10.0,NW,24.2,33.4,N/A,,Overcast,310,2013-01-12 03:56:00
10:56 PM,19.9,16.0,85,29.60,5.0,West,19.6,28.8,0.00,Snow,Light Snow,280,2013-01-12 04:56:00
11:23 PM,17.6,14.0,86,29.55,2.5,West,19.6,27.6,N/A,Snow,Light Snow,280,2013-01-12 05:23:00
11:47 PM,17.6,12.2,79,29.58,2.0,WNW,20.7,29.9,0.00,Snow,Light Snow,290,2013-01-12 05:47:00
11:56 PM,17.1,12.9,84,29.64,5.0,West,17.3,26.5,0.00,Snow,Light Snow,280,2013-01-12 05:56:00